Vorticity
nan nan nan nan nan nan nan nan nan nan nan nan nan nan nan nan nan nan nan nan nan nan nan nan nan nan nan nan nan nan nan nan nan nan nan nan nan nan nan nan nan nan nan nan nan
nan 7 7 7 8 8 8 7 7 8 8 8 7 8 8 11 16 8 14 11 12 5 7 2 6 4 5 7 10 8 11 3 8 14 11 7 8 9 6 4 7 13 17 12 nan
nan 7 7 7 7 8 8 8 8 9 9 9 9 8 8 11 14 17 12 10 6 2 2 7 7 8 8 8 7 11 11 9 9 10 10 9 8 11 10 9 15 12 8 6 nan
nan 7 6 7 8 8 8 9 10 12 11 10 10 9 11 14 6 13 11 10 9 7 4 8 8 9 8 10 6 10 6 12 11 12 7 6 6 6 14 17 21 15 7 7 nan
nan 8 7 7 8 9 9 9 12 14 14 12 10 10 12 7 8 7 11 11 9 6 7 6 7 8 10 10 7 6 8 11 9 9 8 6 5 6 8 14 11 8 7 6 nan
nan 8 8 8 8 9 9 10 13 16 15 12 11 8 10 8 9 12 15 9 6 4 6 7 8 6 11 8 10 9 9 6 8 8 7 6 6 7 6 8 7 7 6 7 nan
nan 8 8 7 7 8 10 12 18 18 13 12 8 7 7 10 8 16 15 8 6 8 3 7 9 14 6 9 13 6 3 3 3 5 5 -7 5 10 9 6 6 6 5 6 nan
nan 7 8 8 8 9 10 13 24 18 11 10 4 5 11 10 13 11 6 11 8 6 9 9 6 13 11 7 8 5 2 1 6 2 -3 -2 10 7 6 5 7 5 6 5 nan
nan 8 8 9 9 10 10 17 21 12 9 6 3 7 10 8 15 10 9 9 7 6 9 5 8 9 12 3 4 6 1 6 7 -0 -2 14 14 10 6 6 7 6 6 6 nan
nan 8 8 9 10 10 16 23 11 7 4 1 10 12 12 12 11 7 11 10 7 5 4 5 7 5 7 3 3 5 3 10 6 8 0 10 10 11 8 7 6 7 7 7 nan
nan 8 8 9 11 12 20 16 9 8 -0 1 5 11 11 11 11 9 9 8 8 5 2 8 6 8 5 0 5 11 9 5 7 8 7 12 7 8 7 6 7 8 7 7 nan
nan 9 9 9 9 21 18 2 6 6 12 17 5 7 10 8 8 10 5 7 7 5 4 6 11 12 4 11 11 8 11 4 4 10 9 11 7 6 7 7 6 5 7 8 nan
nan 9 9 8 24 26 8 12 6 11 11 18 14 14 13 10 9 9 2 7 11 7 6 5 14 9 12 8 9 10 7 5 4 7 8 4 7 7 5 4 6 6 7 8 nan
nan 9 5 23 24 10 18 9 10 10 12 19 13 14 16 9 16 11 6 3 12 16 5 5 14 9 8 6 8 13 9 16 17 2 12 4 6 18 7 4 5 6 6 7 nan
nan 9 13 20 17 7 5 5 14 8 11 15 12 15 17 5 10 12 6 7 11 7 7 18 7 7 11 9 6 13 22 19 13 6 7 5 2 13 19 6 6 7 6 7 nan
nan 7 20 23 12 6 1 14 12 7 15 8 9 13 5 11 6 7 2 -0 13 15 8 7 10 13 10 14 16 6 5 8 9 12 4 13 7 2 15 15 12 10 6 9 nan
nan 12 23 12 8 9 14 15 6 9 10 15 12 12 3 10 9 5 7 6 4 6 9 5 8 11 7 4 11 5 -1 0 8 4 5 14 11 9 10 18 18 15 10 7 nan
nan 32 27 9 4 7 11 9 7 12 6 8 20 14 8 7 9 8 5 3 4 8 10 3 6 10 4 4 7 11 -2 3 12 7 8 4 12 7 5 13 16 14 16 10 nan
nan 31 9 17 11 10 12 7 7 4 10 14 15 12 10 3 7 11 8 6 7 4 4 11 4 9 10 8 12 8 3 5 11 11 9 12 8 11 12 8 11 11 16 15 nan
nan 13 17 15 13 8 10 6 3 3 7 15 16 18 7 3 6 12 11 11 5 6 4 10 9 7 8 3 4 13 13 6 3 6 13 8 6 18 12 13 14 14 15 13 nan
nan 7 17 15 9 6 11 10 6 3 8 8 15 13 16 13 10 9 0 7 16 10 8 2 10 9 5 11 4 6 3 0 3 12 15 11 9 9 9 15 14 17 17 13 nan
nan 11 10 12 10 9 9 6 7 12 9 7 8 15 23 16 11 7 6 7 11 10 12 12 8 6 3 3 18 16 11 4 4 5 -0 3 12 14 11 7 9 13 17 15 nan
nan 13 11 12 13 9 10 6 7 13 6 9 10 11 16 19 15 14 9 12 12 4 14 13 6 10 7 -2 8 12 10 7 4 -2 5 10 9 6 8 5 8 12 12 13 nan
nan 16 11 7 8 16 17 13 7 6 10 7 10 12 13 10 15 17 10 12 11 4 9 15 13 10 3 2 6 8 6 8 6 5 7 5 2 2 8 9 10 9 12 14 nan
nan 7 11 18 8 8 11 17 16 7 7 15 12 7 11 14 12 9 11 8 8 13 9 9 12 15 6 8 11 13 11 10 6 4 3 4 10 12 8 8 9 11 17 15 nan
nan 10 9 12 11 11 13 8 13 8 13 12 6 11 14 10 8 12 9 7 11 8 8 9 14 15 13 16 13 10 16 14 10 8 9 9 6 10 9 10 9 11 12 15 nan
nan nan nan nan nan nan nan nan nan nan nan nan nan nan nan nan nan nan nan nan nan nan nan nan nan nan nan nan nan nan nan nan nan nan nan nan nan nan nan nan nan nan nan nan nan
CAPE
0 0 0 0 0 0 0 0 1 2 1 1 2 0 1 1 0 0 0 0 0 413 339 0 0 9 366 156 277 215 48 28 11 69 573 765 633 958 681 1200 1417 1241 668 1136 1033
0 0 0 0 0 1 1 1 2 3 2 1 2 2 2 0 0 0 0 0 0 295 0 0 0 0 11 13 109 24 15 2 23 57 480 678 777 995 1076 1578 1670 1456 1444 1304 976
0 0 0 0 0 0 1 3 3 2 1 1 1 1 1 0 0 0 0 0 75 95 0 0 0 0 0 0 0 0 0 189 483 501 621 754 898 829 818 883 1528 1542 1494 1186 942
0 0 0 0 0 0 0 3 3 1 1 1 0 1 0 0 0 0 0 0 49 0 0 0 0 0 0 0 0 0 466 464 854 720 549 513 604 1298 1301 1274 1594 1433 1398 1315 1049
0 1 1 0 0 1 1 4 2 1 1 1 0 0 0 0 0 0 0 0 0 0 0 0 0 0 0 0 0 90 645 900 924 598 461 225 613 1438 1683 1630 1626 1615 1580 1500 1225
0 2 2 1 1 2 2 6 1 1 0 0 1 0 0 0 0 0 0 0 0 0 0 0 0 0 0 0 0 245 614 704 462 112 85 166 475 370 1848 1822 1753 1695 1691 1626 1462
2 1 2 2 1 0 2 2 1 1 0 1 1 0 0 0 0 0 0 0 0 0 0 0 0 0 0 2 45 542 677 843 424 646 130 12 228 843 1817 1942 1767 1673 1840 1806 1820
3 1 2 3 1 1 3 1 0 0 1 1 1 0 0 0 0 0 0 0 0 0 0 0 0 0 0 0 142 138 167 309 456 581 356 950 328 1003 1318 1491 1719 1741 1832 1884 1962
3 1 1 3 3 3 2 0 0 0 1 1 0 0 0 0 0 0 0 0 0 0 0 0 0 0 0 0 0 29 54 64 272 633 626 621 367 817 936 911 1160 1508 1767 1829 1921
2 2 0 3 2 1 0 0 0 0 0 0 0 0 0 0 0 0 0 0 0 0 0 0 0 0 0 0 0 0 15 31 39 314 545 451 720 578 740 607 766 1073 1286 1520 1611
2 3 0 2 1 0 0 0 0 0 0 0 0 0 0 0 0 0 0 0 0 0 0 0 0 0 0 0 0 0 0 26 18 92 247 381 938 537 533 649 523 542 1200 1219 1317
2 3 1 0 1 0 0 0 0 0 0 0 0 0 0 0 0 0 0 0 0 0 0 0 0 0 0 0 0 0 0 0 26 125 253 804 910 906 652 329 587 587 1001 1103 1326
3 3 2 1 1 0 0 0 0 0 0 0 0 0 0 0 0 0 0 0 0 0 0 0 0 0 0 0 0 0 0 0 7 285 338 814 917 1414 1036 956 722 990 995 1375 1519
3 3 3 1 0 0 0 0 0 0 0 0 0 0 0 0 0 0 0 0 0 0 0 0 0 0 0 0 0 0 0 0 0 341 123 479 132 1425 1307 1345 1196 957 1428 1462 1662
3 4 2 0 0 0 0 0 0 0 0 0 0 0 0 0 0 0 0 0 0 0 0 0 0 0 0 0 0 1 1 27 70 265 267 706 302 138 1047 1255 1179 1189 1074 1179 1473
3 5 1 0 0 0 0 0 0 0 0 0 0 0 0 0 0 0 0 0 0 0 0 0 0 0 0 0 0 3 60 83 103 67 75 48 118 21 142 680 748 1096 1287 1367 1355
0 1 4 0 0 0 0 0 0 0 0 0 0 0 0 0 0 0 0 0 0 0 0 0 0 0 0 0 0 0 0 10 14 18 13 20 15 4 18 417 487 760 1306 1496 1315
0 0 0 0 0 0 0 0 0 0 0 0 0 0 0 0 0 0 0 0 0 0 0 0 0 0 0 0 0 0 0 3 4 3 4 36 0 0 188 206 173 529 1018 1354 1245
0 0 0 0 0 0 0 0 0 0 0 0 0 0 0 0 0 0 0 0 0 0 0 0 0 0 0 0 0 0 0 0 3 0 0 5 0 16 131 170 194 592 953 1414 912
0 0 0 0 0 0 0 0 0 0 0 0 0 0 0 0 0 0 0 0 0 0 0 0 0 0 0 0 0 3 3 3 6 11 9 6 0 4 0 2 197 341 862 1505 811
0 0 0 0 0 0 0 0 0 0 0 0 0 0 0 0 0 0 0 0 0 0 0 0 0 0 0 0 0 0 4 5 19 5 15 14 14 8 0 0 20 400 882 1387 831
0 0 0 0 0 0 0 0 0 0 0 0 0 0 0 0 0 0 0 0 0 0 0 0 0 0 0 0 0 6 12 26 47 88 30 1 1 0 0 11 19 80 833 1151 1346
0 0 0 0 0 0 0 0 0 0 0 0 0 0 0 0 0 0 0 0 0 0 0 0 0 0 9 0 0 0 10 29 45 58 47 26 46 85 43 95 134 142 620 1204 1533
0 0 0 0 0 0 0 0 0 0 0 0 0 0 0 0 4 1 0 0 0 0 0 0 0 0 0 0 0 0 9 26 40 64 66 60 18 32 43 53 37 222 560 932 1320
0 0 0 0 0 0 0 0 0 0 0 0 0 0 0 33 16 15 28 17 4 7 0 0 0 0 0 1 3 11 15 21 45 42 53 48 60 40 8 2 41 20 92 694 812
0 0 0 0 0 0 0 0 0 0 0 0 8 0 10 43 101 45 16 63 85 47 87 51 90 61 0 0 1 4 7 11 28 43 55 43 24 0 0 0 0 0 14 326 748
0 0 0 0 0 0 0 0 0 0 0 0 0 47 15 18 0 5 7 22 14 170 158 172 195 226 78 16 19 33 25 22 40 46 31 17 6 0 0 0 0 11 37 134 435